Year,Month,Day,Hour,Minute,Value (Times are PST for temperature in C)
2014,11,12,00,00,-1.20
2014,11,12,00,01,-1.20
2014,11,12,00,02,-1.20
2014,11,12,00,03,-1.20
2014,11,12,00,04,-1.20
2014,11,12,00,05,-1.20
2014,11,12,00,06,-1.20
2014,11,12,00,07,-1.20
2014,11,12,00,08,-1.30
2014,11,12,00,09,-1.30
2014,11,12,00,10,-1.20
2014,11,12,00,11,-1.20
2014,11,12,00,12,-1.20
2014,11,12,00,13,-1.20
2014,11,12,00,14,-1.20
2014,11,12,00,15,-1.10
2014,11,12,00,16,-1.10
2014,11,12,00,17,-1.10
2014,11,12,00,18,-1.10
2014,11,12,00,19,-1.10
2014,11,12,00,20,-1.10
2014,11,12,00,21,-1.10
2014,11,12,00,22,-1.10
2014,11,12,00,23,-1.20
2014,11,12,00,24,-1.20
2014,11,12,00,25,-1.20
2014,11,12,00,26,-1.20
2014,11,12,00,27,-1.20
2014,11,12,00,28,-1.20
2014,11,12,00,29,-1.20
2014,11,12,00,30,-1.20
2014,11,12,00,31,-1.20
2014,11,12,00,32,-1.20
2014,11,12,00,33,-1.20
2014,11,12,00,34,-1.20
2014,11,12,00,35,-1.20
2014,11,12,00,36,-1.20
2014,11,12,00,37,-1.30
2014,11,12,00,38,-1.30
2014,11,12,00,39,-1.30
2014,11,12,00,40,-1.30
2014,11,12,00,41,-1.30
2014,11,12,00,42,-1.30
2014,11,12,00,43,-1.40
2014,11,12,00,44,-1.40
2014,11,12,00,45,-1.40
2014,11,12,00,46,-1.40
2014,11,12,00,47,-1.40
2014,11,12,00,48,-1.40
2014,11,12,00,49,-1.40
2014,11,12,00,50,-1.40
2014,11,12,00,51,-1.40
2014,11,12,00,52,-1.40
2014,11,12,00,53,-1.40
2014,11,12,00,54,-1.40
2014,11,12,00,55,-1.40
2014,11,12,00,56,-1.40
2014,11,12,00,57,-1.50
2014,11,12,00,58,-1.50
2014,11,12,00,59,-1.50
2014,11,12,01,00,-1.50
2014,11,12,01,01,-1.50
2014,11,12,01,02,-1.50
2014,11,12,01,03,-1.50
2014,11,12,01,04,-1.50
2014,11,12,01,05,-1.50
2014,11,12,01,06,-1.70
2014,11,12,01,07,-1.70
2014,11,12,01,08,-1.70
2014,11,12,01,09,-1.70
2014,11,12,01,10,-1.70
2014,11,12,01,11,-1.70
2014,11,12,01,12,-1.70
2014,11,12,01,13,-1.70
2014,11,12,01,14,-1.80
2014,11,12,01,15,-1.80
2014,11,12,01,16,-1.80
2014,11,12,01,17,-1.80
2014,11,12,01,18,-1.80
2014,11,12,01,19,-1.80
2014,11,12,01,20,-1.80
2014,11,12,01,21,-1.80
2014,11,12,01,22,-1.80
2014,11,12,01,23,-1.70
2014,11,12,01,24,-1.70
2014,11,12,01,25,-1.70
2014,11,12,01,26,-1.70
2014,11,12,01,27,-1.70
2014,11,12,01,28,-1.70
2014,11,12,01,29,-1.70
2014,11,12,01,30,-1.70
2014,11,12,01,31,-1.70
2014,11,12,01,32,-1.70
2014,11,12,01,33,-1.70
2014,11,12,01,34,-1.70
2014,11,12,01,35,-1.70
2014,11,12,01,36,-1.70
2014,11,12,01,37,-1.70
2014,11,12,01,38,-1.70
2014,11,12,01,39,-1.70
2014,11,12,01,40,-1.70
2014,11,12,01,41,-1.70
2014,11,12,01,42,-1.70
2014,11,12,01,43,-1.70
2014,11,12,01,44,-1.70
2014,11,12,01,45,-1.70
2014,11,12,01,46,-1.80
2014,11,12,01,47,-1.80
2014,11,12,01,48,-1.80
2014,11,12,01,49,-1.80
2014,11,12,01,50,-1.90
2014,11,12,01,51,-1.90
2014,11,12,01,52,-1.90
2014,11,12,01,53,-2.00
2014,11,12,01,54,-2.00
2014,11,12,01,55,-2.00
2014,11,12,01,56,-2.10
2014,11,12,01,57,-2.10
2014,11,12,01,58,-2.10
2014,11,12,01,59,-2.10
2014,11,12,02,00,-2.10
2014,11,12,02,01,-2.10
2014,11,12,02,02,-2.10
2014,11,12,02,03,-2.10
2014,11,12,02,04,-2.10
2014,11,12,02,05,-2.10
2014,11,12,02,06,-2.20
2014,11,12,02,07,-2.20
2014,11,12,02,08,-2.20
2014,11,12,02,09,-2.20
2014,11,12,02,10,-2.30
2014,11,12,02,11,-2.30
2014,11,12,02,12,-2.30
2014,11,12,02,13,-2.30
2014,11,12,02,14,-2.30
2014,11,12,02,15,-2.30
2014,11,12,02,16,-2.30
2014,11,12,02,17,-2.30
2014,11,12,02,18,-2.30
2014,11,12,02,19,-2.30
2014,11,12,02,20,-2.30
2014,11,12,02,21,-2.40
2014,11,12,02,22,-2.40
2014,11,12,02,23,-2.40
2014,11,12,02,24,-2.40
2014,11,12,02,25,-2.40
2014,11,12,02,26,-2.40
2014,11,12,02,27,-2.40
2014,11,12,02,28,-2.40
2014,11,12,02,29,-2.40
2014,11,12,02,30,-2.40
2014,11,12,02,31,-2.40
2014,11,12,02,32,-2.30
2014,11,12,02,33,-2.40
2014,11,12,02,34,-2.40
2014,11,12,02,35,-2.40
2014,11,12,02,36,-2.40
2014,11,12,02,37,-2.40
2014,11,12,02,38,-2.40
2014,11,12,02,39,-2.40
2014,11,12,02,40,-2.40
2014,11,12,02,41,-2.40
2014,11,12,02,42,-2.40
2014,11,12,02,43,-2.40
2014,11,12,02,44,-2.40
2014,11,12,02,45,-2.40
2014,11,12,02,46,-2.50
2014,11,12,02,47,-2.50
2014,11,12,02,48,-2.50
2014,11,12,02,49,-2.50
2014,11,12,02,50,-2.50
2014,11,12,02,51,-2.60
2014,11,12,02,52,-2.60
2014,11,12,02,53,-2.60
2014,11,12,02,54,-2.60
2014,11,12,02,55,-2.70
2014,11,12,02,56,-2.70
2014,11,12,02,57,-2.70
2014,11,12,02,58,-2.70
2014,11,12,02,59,-2.70
2014,11,12,03,00,-2.70
2014,11,12,03,01,-2.70
2014,11,12,03,02,-2.80
2014,11,12,03,03,-2.80
2014,11,12,03,04,-2.80
2014,11,12,03,05,-2.80
2014,11,12,03,06,-2.80
2014,11,12,03,07,-2.80
2014,11,12,03,08,-2.80
2014,11,12,03,09,-2.80
2014,11,12,03,10,-2.80
2014,11,12,03,11,-2.80
2014,11,12,03,12,-2.80
2014,11,12,03,13,-2.80
2014,11,12,03,14,-2.80
2014,11,12,03,15,-2.80
2014,11,12,03,16,-2.80
2014,11,12,03,17,-2.80
2014,11,12,03,18,-2.80
2014,11,12,03,19,-2.80
2014,11,12,03,20,-2.80
2014,11,12,03,21,-2.80
2014,11,12,03,22,-2.80
2014,11,12,03,23,-2.80
2014,11,12,03,24,-2.80
2014,11,12,03,25,-2.80
2014,11,12,03,26,-2.80
2014,11,12,03,27,-2.80
2014,11,12,03,28,-2.80
2014,11,12,03,29,-2.80
2014,11,12,03,30,-2.90
2014,11,12,03,31,-2.90
2014,11,12,03,32,-2.90
2014,11,12,03,33,-2.80
2014,11,12,03,34,-2.80
2014,11,12,03,35,-2.80
2014,11,12,03,36,-2.80
2014,11,12,03,37,-2.80
2014,11,12,03,38,-2.80
2014,11,12,03,39,-2.80
2014,11,12,03,40,-2.80
2014,11,12,03,41,-2.80
2014,11,12,03,42,-2.70
2014,11,12,03,43,-2.70
2014,11,12,03,44,-2.70
2014,11,12,03,45,-2.70
2014,11,12,03,46,-2.70
2014,11,12,03,47,-2.70
2014,11,12,03,48,-2.70
2014,11,12,03,49,-2.70
2014,11,12,03,50,-2.70
2014,11,12,03,51,-2.70
2014,11,12,03,52,-2.70
2014,11,12,03,53,-2.70
2014,11,12,03,54,-2.70
2014,11,12,03,55,-2.70
2014,11,12,03,56,-2.80
2014,11,12,03,57,-2.80
2014,11,12,03,58,-2.80
2014,11,12,03,59,-2.80
2014,11,12,04,00,-2.80
2014,11,12,04,01,-2.80
2014,11,12,04,02,-2.80
2014,11,12,04,03,-2.80
2014,11,12,04,04,-2.90
2014,11,12,04,05,-2.90
2014,11,12,04,06,-3.00
2014,11,12,04,07,-3.00
2014,11,12,04,08,-3.00
2014,11,12,04,09,-3.00
2014,11,12,04,10,-3.00
2014,11,12,04,11,-3.00
2014,11,12,04,12,-3.00
2014,11,12,04,13,-3.00
2014,11,12,04,14,-3.00
2014,11,12,04,15,-3.00
2014,11,12,04,16,-3.00
2014,11,12,04,17,-2.90
2014,11,12,04,18,-3.00
2014,11,12,04,19,-3.00
2014,11,12,04,20,-3.10
2014,11,12,04,21,-3.10
2014,11,12,04,22,-3.10
2014,11,12,04,23,-3.10
2014,11,12,04,24,-3.10
2014,11,12,04,25,-3.10
2014,11,12,04,26,-3.10
2014,11,12,04,27,-3.10
2014,11,12,04,28,-3.20
2014,11,12,04,29,-3.20
2014,11,12,04,30,-3.20
2014,11,12,04,31,-3.20
2014,11,12,04,32,-3.10
2014,11,12,04,33,-3.00
2014,11,12,04,34,-2.90
2014,11,12,04,35,-2.80
2014,11,12,04,36,-2.80
2014,11,12,04,37,-2.80
2014,11,12,04,38,-2.80
2014,11,12,04,39,-2.80
2014,11,12,04,40,-2.80
2014,11,12,04,41,-2.80
2014,11,12,04,42,-2.80
2014,11,12,04,43,-2.80
2014,11,12,04,44,-2.90
2014,11,12,04,45,-2.80
2014,11,12,04,46,-2.80
2014,11,12,04,47,-2.80
2014,11,12,04,48,-2.80
2014,11,12,04,49,-2.80
2014,11,12,04,50,-2.90
2014,11,12,04,51,-2.90
2014,11,12,04,52,-2.90
2014,11,12,04,53,-2.90
2014,11,12,04,54,-3.00
2014,11,12,04,55,-3.00
2014,11,12,04,56,-3.00
2014,11,12,04,57,-3.00
2014,11,12,04,58,-3.00
2014,11,12,04,59,-3.10
2014,11,12,05,00,-3.10
2014,11,12,05,01,-3.10
2014,11,12,05,02,-3.10
2014,11,12,05,03,-3.10
2014,11,12,05,04,-3.10
2014,11,12,05,05,-3.10
2014,11,12,05,06,-3.10
2014,11,12,05,07,-3.10
2014,11,12,05,08,-3.10
2014,11,12,05,09,-3.10
2014,11,12,05,10,-3.10
2014,11,12,05,11,-3.10
2014,11,12,05,12,-3.20
2014,11,12,05,13,-3.20
2014,11,12,05,14,-3.20
2014,11,12,05,15,-3.20
2014,11,12,05,16,-3.20
2014,11,12,05,17,-3.20
2014,11,12,05,18,-3.20
2014,11,12,05,19,-3.20
2014,11,12,05,20,-3.20
2014,11,12,05,21,-3.20
2014,11,12,05,22,-3.20
2014,11,12,05,23,-3.20
2014,11,12,05,24,-3.20
2014,11,12,05,25,-3.20
2014,11,12,05,26,-3.20
2014,11,12,05,27,-3.20
2014,11,12,05,28,-3.20
2014,11,12,05,29,-3.20
2014,11,12,05,30,-3.20
2014,11,12,05,31,-3.20
2014,11,12,05,32,-3.30
2014,11,12,05,33,-3.30
2014,11,12,05,34,-3.30
2014,11,12,05,35,-3.30
2014,11,12,05,36,-3.30
2014,11,12,05,37,-3.30
2014,11,12,05,38,-3.30
2014,11,12,05,39,-3.30
2014,11,12,05,40,-3.30
2014,11,12,05,41,-3.30
2014,11,12,05,42,-3.30
2014,11,12,05,43,-3.30
2014,11,12,05,44,-3.30
2014,11,12,05,45,-3.30
2014,11,12,05,46,-3.30
2014,11,12,05,47,-3.30
2014,11,12,05,48,-3.30
2014,11,12,05,49,-3.30
2014,11,12,05,50,-3.30
2014,11,12,05,51,-3.30
2014,11,12,05,52,-3.30
2014,11,12,05,53,-3.30
2014,11,12,05,54,-3.40
2014,11,12,05,55,-3.40
2014,11,12,05,56,-3.40
2014,11,12,05,57,-3.40
2014,11,12,05,58,-3.40
2014,11,12,05,59,-3.50
2014,11,12,06,00,-3.50
2014,11,12,06,01,-3.60
2014,11,12,06,02,-3.60
2014,11,12,06,03,-3.60
2014,11,12,06,04,-3.50
2014,11,12,06,05,-3.50
2014,11,12,06,06,-3.50
2014,11,12,06,07,-3.50
2014,11,12,06,08,-3.60
2014,11,12,06,09,-3.60
2014,11,12,06,10,-3.60
2014,11,12,06,11,-3.60
2014,11,12,06,12,-3.50
2014,11,12,06,13,-3.50
2014,11,12,06,14,-3.50
2014,11,12,06,15,-3.50
2014,11,12,06,16,-3.50
2014,11,12,06,17,-3.50
2014,11,12,06,18,-3.40
2014,11,12,06,19,-3.40
2014,11,12,06,20,-3.40
2014,11,12,06,21,-3.40
2014,11,12,06,22,-3.40
2014,11,12,06,23,-3.40
2014,11,12,06,24,-3.40
2014,11,12,06,25,-3.40
2014,11,12,06,26,-3.40
2014,11,12,06,27,-3.40
2014,11,12,06,28,-3.40
2014,11,12,06,29,-3.40
2014,11,12,06,30,-3.40
2014,11,12,06,31,-3.40
2014,11,12,06,32,-3.40
2014,11,12,06,33,-3.40
2014,11,12,06,34,-3.50
2014,11,12,06,35,-3.50
2014,11,12,06,36,-3.50
2014,11,12,06,37,-3.40
2014,11,12,06,38,-3.40
2014,11,12,06,39,-3.50
2014,11,12,06,40,-3.50
2014,11,12,06,41,-3.60
2014,11,12,06,42,-3.60
2014,11,12,06,43,-3.60
2014,11,12,06,44,-3.60
2014,11,12,06,45,-3.70
2014,11,12,06,46,-3.70
2014,11,12,06,47,-3.70
2014,11,12,06,48,-3.70
2014,11,12,06,49,-3.70
2014,11,12,06,50,-3.70
2014,11,12,06,51,-3.70
2014,11,12,06,52,-3.70
2014,11,12,06,53,-3.70
2014,11,12,06,54,-3.80
2014,11,12,06,55,-3.80
2014,11,12,06,56,-3.80
2014,11,12,06,57,-3.80
2014,11,12,06,58,-3.80
2014,11,12,06,59,-3.80
2014,11,12,07,00,-3.80
2014,11,12,07,01,-3.80
2014,11,12,07,02,-3.90
2014,11,12,07,03,-3.90
2014,11,12,07,04,-3.90
2014,11,12,07,05,-3.90
2014,11,12,07,06,-3.90
2014,11,12,07,07,-3.90
2014,11,12,07,08,-3.90
2014,11,12,07,09,-3.90
2014,11,12,07,10,-3.90
2014,11,12,07,11,-3.90
2014,11,12,07,12,-3.90
2014,11,12,07,13,-3.90
2014,11,12,07,14,-3.80
2014,11,12,07,15,-3.80
2014,11,12,07,16,-3.70
2014,11,12,07,17,-3.60
2014,11,12,07,18,-3.50
2014,11,12,07,19,-3.50
2014,11,12,07,20,-3.50
2014,11,12,07,21,-3.50
2014,11,12,07,22,-3.50
2014,11,12,07,23,-3.50
2014,11,12,07,24,-3.50
2014,11,12,07,25,-3.60
2014,11,12,07,26,-3.60
2014,11,12,07,27,-3.60
2014,11,12,07,28,-3.60
2014,11,12,07,29,-3.70
2014,11,12,07,30,-3.70
2014,11,12,07,31,-3.70
2014,11,12,07,32,-3.70
2014,11,12,07,33,-3.70
2014,11,12,07,34,-3.70
2014,11,12,07,35,-3.80
2014,11,12,07,36,-3.80
2014,11,12,07,37,-3.80
2014,11,12,07,38,-3.80
2014,11,12,07,39,-3.80
2014,11,12,07,40,-3.80
2014,11,12,07,41,-3.90
2014,11,12,07,42,-3.90
2014,11,12,07,43,-3.90
2014,11,12,07,44,-3.90
2014,11,12,07,45,-3.90
2014,11,12,07,46,-3.90
2014,11,12,07,47,-3.90
2014,11,12,07,48,-3.80
2014,11,12,07,49,-3.80
2014,11,12,07,50,-3.80
2014,11,12,07,51,-3.80
2014,11,12,07,52,-3.80
2014,11,12,07,53,-3.80
2014,11,12,07,54,-3.80
2014,11,12,07,55,-3.70
2014,11,12,07,56,-3.80
2014,11,12,07,57,-3.80
2014,11,12,07,58,-3.80
2014,11,12,07,59,-3.80
2014,11,12,08,00,-3.70
2014,11,12,08,01,-3.70
2014,11,12,08,02,-3.70
2014,11,12,08,03,-3.70
2014,11,12,08,04,-3.70
2014,11,12,08,05,-3.70
2014,11,12,08,06,-3.70
2014,11,12,08,07,-3.70
2014,11,12,08,08,-3.70
2014,11,12,08,09,-3.80
2014,11,12,08,10,-3.80
2014,11,12,08,11,-3.80
2014,11,12,08,12,-3.80
2014,11,12,08,13,-3.80
2014,11,12,08,14,-3.80
2014,11,12,08,15,-3.80
2014,11,12,08,16,-3.80
2014,11,12,08,17,-3.80
2014,11,12,08,18,-3.80
2014,11,12,08,19,-3.80
2014,11,12,08,20,-3.80
2014,11,12,08,21,-3.80
2014,11,12,08,22,-3.80
2014,11,12,08,23,-3.80
2014,11,12,08,24,-3.80
2014,11,12,08,25,-3.80
2014,11,12,08,26,-3.70
2014,11,12,08,27,-3.70
2014,11,12,08,28,-3.70
2014,11,12,08,29,-3.60
2014,11,12,08,30,-3.60
2014,11,12,08,31,-3.50
2014,11,12,08,32,-3.40
2014,11,12,08,33,-3.40
2014,11,12,08,34,-3.30
2014,11,12,08,35,-3.20
2014,11,12,08,36,-3.20
2014,11,12,08,37,-3.10
2014,11,12,08,38,-3.00
2014,11,12,08,39,-2.90
2014,11,12,08,40,-2.80
2014,11,12,08,41,-2.70
2014,11,12,08,42,-2.60
2014,11,12,08,43,-2.50
2014,11,12,08,44,-2.40
2014,11,12,08,45,-2.30
2014,11,12,08,46,-2.30
2014,11,12,08,47,-2.30
2014,11,12,08,48,-2.20
2014,11,12,08,49,-2.20
2014,11,12,08,50,-2.10
2014,11,12,08,51,-2.00
2014,11,12,08,52,-1.90
2014,11,12,08,53,-1.90
2014,11,12,08,54,-1.80
2014,11,12,08,55,-1.80
2014,11,12,08,56,-1.70
2014,11,12,08,57,-1.70
2014,11,12,08,58,-1.60
2014,11,12,08,59,-1.60
2014,11,12,09,00,-1.50
2014,11,12,09,01,-1.50
2014,11,12,09,02,-1.40
2014,11,12,09,03,-1.40
2014,11,12,09,04,-1.30
2014,11,12,09,05,-1.30
2014,11,12,09,06,-1.20
2014,11,12,09,07,-1.10
2014,11,12,09,08,-1.00
2014,11,12,09,09,-1.00
2014,11,12,09,10,-0.90
2014,11,12,09,11,-0.80
2014,11,12,09,12,-0.80
2014,11,12,09,13,-0.80
2014,11,12,09,14,-0.70
2014,11,12,09,15,-0.70
2014,11,12,09,16,-0.70
2014,11,12,09,17,-0.60
2014,11,12,09,18,-0.60
2014,11,12,09,19,-0.50
2014,11,12,09,20,-0.40
2014,11,12,09,21,-0.40
2014,11,12,09,22,-0.30
2014,11,12,09,23,-0.30
2014,11,12,09,24,-0.30
2014,11,12,09,25,-0.20
2014,11,12,09,26,-0.20
2014,11,12,09,27,-0.10
2014,11,12,09,28,-0.10
2014,11,12,09,29,0.00
2014,11,12,09,30,0.10
2014,11,12,09,31,0.20
2014,11,12,09,32,0.20
2014,11,12,09,33,0.30
2014,11,12,09,34,0.30
2014,11,12,09,35,0.40
2014,11,12,09,36,0.40
2014,11,12,09,37,0.50
2014,11,12,09,38,0.50
2014,11,12,09,39,0.60
2014,11,12,09,40,0.70
2014,11,12,09,41,0.80
2014,11,12,09,42,0.80
2014,11,12,09,43,0.90
2014,11,12,09,44,1.00
2014,11,12,09,45,1.00
2014,11,12,09,46,1.10
2014,11,12,09,47,1.20
2014,11,12,09,48,1.30
2014,11,12,09,49,1.30
2014,11,12,09,50,1.40
2014,11,12,09,51,1.50
2014,11,12,09,52,1.50
2014,11,12,09,53,1.60
2014,11,12,09,54,1.70
2014,11,12,09,55,1.70
2014,11,12,09,56,1.80
2014,11,12,09,57,1.80
2014,11,12,09,58,1.90
2014,11,12,09,59,2.00
2014,11,12,10,00,2.10
2014,11,12,10,01,2.20
2014,11,12,10,02,2.20
2014,11,12,10,03,2.30
2014,11,12,10,04,2.30
2014,11,12,10,05,2.30
2014,11,12,10,06,2.30
2014,11,12,10,07,2.40
2014,11,12,10,08,2.40
2014,11,12,10,09,2.50
2014,11,12,10,10,2.50
2014,11,12,10,11,2.60
2014,11,12,10,12,2.70
2014,11,12,10,13,2.80
2014,11,12,10,14,2.90
2014,11,12,10,15,2.90
2014,11,12,10,16,3.00
2014,11,12,10,17,3.10
2014,11,12,10,18,3.20
2014,11,12,10,19,3.20
2014,11,12,10,20,3.30
2014,11,12,10,21,3.40
2014,11,12,10,22,3.40
2014,11,12,10,23,3.50
2014,11,12,10,24,3.60
2014,11,12,10,25,3.60
2014,11,12,10,26,3.70
2014,11,12,10,27,3.80
2014,11,12,10,28,3.90
2014,11,12,10,29,3.90
2014,11,12,10,30,4.00
2014,11,12,10,31,4.20
2014,11,12,10,32,4.40
2014,11,12,10,33,4.60
2014,11,12,10,34,4.80
2014,11,12,10,35,4.90
2014,11,12,10,36,5.10
2014,11,12,10,37,5.30
2014,11,12,10,38,5.50
2014,11,12,10,39,5.60
2014,11,12,10,40,5.70
2014,11,12,10,41,5.80
2014,11,12,10,42,5.90
2014,11,12,10,43,5.90
2014,11,12,10,44,6.00
2014,11,12,10,45,6.00
2014,11,12,10,46,6.10
2014,11,12,10,47,6.10
2014,11,12,10,48,6.10
2014,11,12,10,49,6.20
2014,11,12,10,50,6.20
2014,11,12,10,51,6.20
2014,11,12,10,52,6.30
2014,11,12,10,53,6.30
2014,11,12,10,54,6.30
2014,11,12,10,55,6.30
2014,11,12,10,56,6.30
2014,11,12,10,57,6.30
2014,11,12,10,58,6.30
2014,11,12,10,59,6.30
2014,11,12,11,00,6.30
2014,11,12,11,01,6.40
2014,11,12,11,02,6.40
2014,11,12,11,03,6.40
2014,11,12,11,04,6.40
2014,11,12,11,05,6.50
2014,11,12,11,06,6.50
2014,11,12,11,07,6.50
2014,11,12,11,08,6.50
2014,11,12,11,09,6.50
2014,11,12,11,10,6.60
2014,11,12,11,11,6.60
2014,11,12,11,12,6.60
2014,11,12,11,13,6.60
2014,11,12,11,14,6.70
2014,11,12,11,15,6.70
2014,11,12,11,16,6.70
2014,11,12,11,17,6.80
2014,11,12,11,18,6.80
2014,11,12,11,19,6.80
2014,11,12,11,20,6.80
2014,11,12,11,21,6.80
2014,11,12,11,22,6.80
2014,11,12,11,23,6.80
2014,11,12,11,24,6.80
2014,11,12,11,25,6.80
2014,11,12,11,26,6.80
2014,11,12,11,27,6.80
2014,11,12,11,28,6.80
2014,11,12,11,29,6.80
2014,11,12,11,30,6.80
2014,11,12,11,31,6.80
2014,11,12,11,32,6.80
2014,11,12,11,33,6.80
2014,11,12,11,34,6.80
2014,11,12,11,35,6.80
2014,11,12,11,36,6.80
2014,11,12,11,37,6.80
2014,11,12,11,38,6.80
2014,11,12,11,39,6.80
2014,11,12,11,40,6.80
2014,11,12,11,41,6.80
2014,11,12,11,42,6.80
2014,11,12,11,43,6.80
2014,11,12,11,44,6.90
2014,11,12,11,45,6.90
2014,11,12,11,46,6.90
2014,11,12,11,47,6.90
2014,11,12,11,48,6.90
2014,11,12,11,49,6.90
2014,11,12,11,50,6.90
2014,11,12,11,51,6.90
2014,11,12,11,52,7.00
2014,11,12,11,53,6.90
2014,11,12,11,54,6.90
2014,11,12,11,55,6.90
2014,11,12,11,56,6.90
2014,11,12,11,57,6.90
2014,11,12,11,58,6.90
2014,11,12,11,59,7.00
2014,11,12,12,00,7.00
2014,11,12,12,01,7.10
2014,11,12,12,02,7.10
2014,11,12,12,03,7.10
2014,11,12,12,04,7.10
2014,11,12,12,05,7.10
2014,11,12,12,06,7.10
2014,11,12,12,07,7.10
2014,11,12,12,08,7.00
2014,11,12,12,09,7.00
2014,11,12,12,10,7.00
2014,11,12,12,11,7.00
2014,11,12,12,12,7.00
2014,11,12,12,13,7.00
2014,11,12,12,14,7.10
2014,11,12,12,15,7.10
2014,11,12,12,16,7.10
2014,11,12,12,17,7.10
2014,11,12,12,18,7.10
2014,11,12,12,19,7.10
2014,11,12,12,20,7.10
2014,11,12,12,21,7.10
2014,11,12,12,22,7.10
2014,11,12,12,23,7.10
2014,11,12,12,24,7.10
2014,11,12,12,25,7.10
2014,11,12,12,26,7.10
2014,11,12,12,27,7.10
2014,11,12,12,28,7.10
2014,11,12,12,29,7.20
2014,11,12,12,30,7.20
2014,11,12,12,31,7.20
2014,11,12,12,32,7.20
2014,11,12,12,33,7.20
2014,11,12,12,34,7.20
2014,11,12,12,35,7.20
2014,11,12,12,36,7.20
2014,11,12,12,37,7.20
2014,11,12,12,38,7.20
2014,11,12,12,39,7.20
2014,11,12,12,40,7.20
2014,11,12,12,41,7.20
2014,11,12,12,42,7.20
2014,11,12,12,43,7.20
2014,11,12,12,44,7.20
2014,11,12,12,45,7.20
2014,11,12,12,46,7.20
2014,11,12,12,47,7.20
2014,11,12,12,48,7.20
2014,11,12,12,49,7.20
2014,11,12,12,50,7.20
2014,11,12,12,51,7.30
2014,11,12,12,52,7.30
2014,11,12,12,53,7.30
2014,11,12,12,54,7.30
2014,11,12,12,55,7.30
2014,11,12,12,56,7.30
2014,11,12,12,57,7.30
2014,11,12,12,58,7.30
2014,11,12,12,59,7.30
2014,11,12,13,00,7.30
2014,11,12,13,01,7.30
2014,11,12,13,02,7.30
2014,11,12,13,03,7.30
2014,11,12,13,04,7.30
2014,11,12,13,05,7.30
2014,11,12,13,06,7.30
2014,11,12,13,07,7.30
2014,11,12,13,08,7.30
2014,11,12,13,09,7.30
2014,11,12,13,10,7.20
2014,11,12,13,11,7.20
2014,11,12,13,12,7.20
2014,11,12,13,13,7.20
2014,11,12,13,14,7.20
2014,11,12,13,15,7.20
2014,11,12,13,16,7.30
2014,11,12,13,17,7.30
2014,11,12,13,18,7.30
2014,11,12,13,19,7.30
2014,11,12,13,20,7.30
2014,11,12,13,21,7.30
2014,11,12,13,22,7.30
2014,11,12,13,23,7.30
2014,11,12,13,24,7.30
2014,11,12,13,25,7.30
2014,11,12,13,26,7.40
2014,11,12,13,27,7.40
2014,11,12,13,28,7.40
2014,11,12,13,29,7.40
2014,11,12,13,30,7.40
2014,11,12,13,31,7.40
2014,11,12,13,32,7.40
2014,11,12,13,33,7.40
2014,11,12,13,34,7.40
2014,11,12,13,35,7.40
2014,11,12,13,36,7.40
2014,11,12,13,37,7.40
2014,11,12,13,38,7.40
2014,11,12,13,39,7.40
2014,11,12,13,40,7.40
2014,11,12,13,41,7.40
2014,11,12,13,42,7.40
2014,11,12,13,43,7.40
2014,11,12,13,44,7.40
2014,11,12,13,45,7.50
2014,11,12,13,46,7.50
2014,11,12,13,47,7.50
2014,11,12,13,48,7.50
2014,11,12,13,49,7.50
2014,11,12,13,50,7.50
2014,11,12,13,51,7.50
2014,11,12,13,52,7.50
2014,11,12,13,53,7.50
2014,11,12,13,54,7.50
2014,11,12,13,55,7.50
2014,11,12,13,56,7.50
2014,11,12,13,57,7.40
2014,11,12,13,58,7.40
2014,11,12,13,59,7.40
2014,11,12,14,00,7.40
2014,11,12,14,01,7.40
2014,11,12,14,02,7.40
2014,11,12,14,03,7.40
2014,11,12,14,04,7.40
2014,11,12,14,05,7.40
2014,11,12,14,06,7.50
2014,11,12,14,07,7.50
2014,11,12,14,08,7.50
2014,11,12,14,09,7.40
2014,11,12,14,10,7.40
2014,11,12,14,11,7.40
2014,11,12,14,12,7.40
2014,11,12,14,13,7.40
2014,11,12,14,14,7.40
2014,11,12,14,15,7.40
2014,11,12,14,16,7.40
2014,11,12,14,17,7.40
2014,11,12,14,18,7.40
2014,11,12,14,19,7.40
2014,11,12,14,20,7.40
2014,11,12,14,21,7.40
2014,11,12,14,22,7.40
2014,11,12,14,23,7.40
2014,11,12,14,24,7.40
2014,11,12,14,25,7.40
2014,11,12,14,26,7.40
2014,11,12,14,27,7.40
2014,11,12,14,28,7.40
2014,11,12,14,29,7.40
2014,11,12,14,30,7.40
2014,11,12,14,31,7.40
2014,11,12,14,32,7.40
2014,11,12,14,33,7.40
2014,11,12,14,34,7.40
2014,11,12,14,35,7.40
2014,11,12,14,36,7.40
2014,11,12,14,37,7.40
2014,11,12,14,38,7.40
2014,11,12,14,39,7.40
2014,11,12,14,40,7.40
2014,11,12,14,41,7.40
2014,11,12,14,42,7.40
2014,11,12,14,43,7.40
2014,11,12,14,44,7.40
2014,11,12,14,45,7.40
2014,11,12,14,46,7.40
2014,11,12,14,47,7.40
2014,11,12,14,48,7.40
2014,11,12,14,49,7.30
2014,11,12,14,50,7.30
2014,11,12,14,51,7.30
2014,11,12,14,52,7.30
2014,11,12,14,53,7.20
2014,11,12,14,54,7.20
2014,11,12,14,55,7.20
2014,11,12,14,56,7.20
2014,11,12,14,57,7.20
2014,11,12,14,58,7.20
2014,11,12,14,59,7.20
2014,11,12,15,00,7.20
2014,11,12,15,01,7.20
2014,11,12,15,02,7.20
2014,11,12,15,03,7.20
2014,11,12,15,04,7.10
2014,11,12,15,05,7.10
2014,11,12,15,06,7.10
2014,11,12,15,07,7.10
2014,11,12,15,08,7.10
2014,11,12,15,09,7.10
2014,11,12,15,10,7.00
2014,11,12,15,11,7.00
2014,11,12,15,12,7.00
2014,11,12,15,13,7.00
2014,11,12,15,14,6.90
2014,11,12,15,15,6.90
2014,11,12,15,16,6.90
2014,11,12,15,17,6.90
2014,11,12,15,18,6.90
2014,11,12,15,19,6.90
2014,11,12,15,20,6.90
2014,11,12,15,21,6.90
2014,11,12,15,22,6.90
2014,11,12,15,23,6.80
2014,11,12,15,24,6.80
2014,11,12,15,25,6.80
2014,11,12,15,26,6.80
2014,11,12,15,27,6.80
2014,11,12,15,28,6.80
2014,11,12,15,29,6.80
2014,11,12,15,30,6.80
2014,11,12,15,31,6.80
2014,11,12,15,32,6.80
2014,11,12,15,33,6.80
2014,11,12,15,34,6.80
2014,11,12,15,35,6.70
2014,11,12,15,36,6.70
2014,11,12,15,37,6.70
2014,11,12,15,38,6.70
2014,11,12,15,39,6.70
2014,11,12,15,40,6.60
2014,11,12,15,41,6.60
2014,11,12,15,42,6.60
2014,11,12,15,43,6.60
2014,11,12,15,44,6.60
2014,11,12,15,45,6.60
2014,11,12,15,46,6.50
2014,11,12,15,47,6.50
2014,11,12,15,48,6.50
2014,11,12,15,49,6.50
2014,11,12,15,50,6.50
2014,11,12,15,51,6.50
2014,11,12,15,52,6.50
2014,11,12,15,53,6.50
2014,11,12,15,54,6.40
2014,11,12,15,55,6.40
2014,11,12,15,56,6.40
2014,11,12,15,57,6.40
2014,11,12,15,58,6.40
2014,11,12,15,59,6.40
2014,11,12,16,00,6.40
2014,11,12,16,01,6.40
2014,11,12,16,02,6.40
2014,11,12,16,03,6.40
2014,11,12,16,04,6.30
2014,11,12,16,05,6.30
2014,11,12,16,06,6.30
2014,11,12,16,07,6.30
2014,11,12,16,08,6.30
2014,11,12,16,09,6.30
2014,11,12,16,10,6.30
2014,11,12,16,11,6.20
2014,11,12,16,12,6.20
2014,11,12,16,13,6.20
2014,11,12,16,14,6.20
2014,11,12,16,15,6.10
2014,11,12,16,16,6.10
2014,11,12,16,17,6.10
2014,11,12,16,18,6.00
2014,11,12,16,19,6.00
2014,11,12,16,20,6.00
2014,11,12,16,21,6.00
2014,11,12,16,22,5.90
2014,11,12,16,23,5.90
2014,11,12,16,24,5.90
2014,11,12,16,25,5.90
2014,11,12,16,26,5.90
2014,11,12,16,27,5.90
2014,11,12,16,28,5.90
2014,11,12,16,29,5.80
2014,11,12,16,30,5.80
2014,11,12,16,31,5.80
2014,11,12,16,32,5.80
2014,11,12,16,33,5.80
2014,11,12,16,34,5.80
2014,11,12,16,35,5.80
2014,11,12,16,36,5.80
2014,11,12,16,37,5.80
2014,11,12,16,38,5.70
2014,11,12,16,39,5.70
2014,11,12,16,40,5.70
2014,11,12,16,41,5.70
2014,11,12,16,42,5.70
2014,11,12,16,43,5.70
2014,11,12,16,44,5.60
2014,11,12,16,45,5.60
2014,11,12,16,46,5.60
2014,11,12,16,47,5.60
2014,11,12,16,48,5.60
2014,11,12,16,49,5.60
2014,11,12,16,50,5.60
2014,11,12,16,51,5.60
2014,11,12,16,52,5.60
2014,11,12,16,53,5.50
2014,11,12,16,54,5.50
2014,11,12,16,55,5.50
2014,11,12,16,56,5.50
2014,11,12,16,57,5.50
2014,11,12,16,58,5.50
2014,11,12,16,59,5.50
2014,11,12,17,00,5.50
2014,11,12,17,01,5.50
2014,11,12,17,02,5.50
2014,11,12,17,03,5.50
2014,11,12,17,04,5.50
2014,11,12,17,05,5.50
2014,11,12,17,06,5.40
2014,11,12,17,07,5.40
2014,11,12,17,08,5.40
2014,11,12,17,09,5.40
2014,11,12,17,10,5.30
2014,11,12,17,11,5.30
2014,11,12,17,12,5.30
2014,11,12,17,13,5.30
2014,11,12,17,14,5.30
2014,11,12,17,15,5.30
2014,11,12,17,16,5.30
2014,11,12,17,17,5.30
2014,11,12,17,18,5.30
2014,11,12,17,19,5.40
2014,11,12,17,20,5.40
2014,11,12,17,21,5.30
2014,11,12,17,22,5.30
2014,11,12,17,23,5.30
2014,11,12,17,24,5.30
2014,11,12,17,25,5.30
2014,11,12,17,26,5.20
2014,11,12,17,27,5.20
2014,11,12,17,28,5.20
2014,11,12,17,29,5.20
2014,11,12,17,30,5.20
2014,11,12,17,31,5.10
2014,11,12,17,32,5.20
2014,11,12,17,33,5.20
2014,11,12,17,34,5.20
2014,11,12,17,35,5.20
2014,11,12,17,36,5.20
2014,11,12,17,37,5.20
2014,11,12,17,38,5.20
2014,11,12,17,39,5.10
2014,11,12,17,40,5.10